Regional Weather Roundup
Issued by NWS Columbia, SC

Home | Current Version | Previous Version | Text Only | Print | Product List | Glossary On
Versions: 1 2 3 4 5 6 7 8 9 10 11 12 13 14 15 16 17 18 19 20 21 22 23 24 25 26 27 28 29 30 31 32 33 34 35 36 37 38 39 40 41 42 43 44 45 46 47 48 49 50
000
ASUS42 KCAE 282210
RWRCAE
REGIONAL WEATHER ROUNDUP
NATIONAL WEATHER SERVICE COLUMBIA SC
600 PM EDT SUN MAY 28 2017

NOTE: "FAIR" INDICATES FEW OR NO CLOUDS BELOW 12,000 FEET WITH NO
SIGNIFICANT WEATHER AND/OR OBSTRUCTIONS TO VISIBILITY.

NOT ALL STATIONS ARE QUALITY CONTROLLED BY THE NATIONAL
WEATHER SERVICE. USE DATA WITH CAUTION...ESPECIALLY
DEWPOINT OBSERVATIONS.

SCZ001>056-GAZ040-063>065-077-282300-
...UPSTATE SOUTH CAROLINA...

CITY           SKY/WX    TMP DP  RH WIND       PRES   REMARKS
ANDERSON       MOSUNNY   82  67  60 W14       29.88S
SPARTANBURG    MOSUNNY   81  63  54 SW9G16    29.86S
CLEMSON        CLOUDY    83  65  54 W13G24    29.89S
GREENVILLE     MOSUNNY   82  65  56 W14       29.88S
GREENWOOD      MOSUNNY   83  68  60 W9        29.88R
GREER          MOSUNNY   81  65  58 W12G23    29.86S
ROCK HILL      MOSUNNY   85  67  54 SW12      29.85S
CHESTER        PTCLDY    82  63  51 SW6       29.87R
LAURENS        PTCLDY    82  70  65 W12G18    29.87R


...CENTRAL SOUTH CAROLINA...

CITY           SKY/WX    TMP DP  RH WIND       PRES   REMARKS
COLUMBIA APT   CLOUDY    89  71  55 SW12      29.83R HX  95
COLUMBIA OWENS CLOUDY    88  69  53 SW10G20   29.84R
MCENTIRE ANGB  CLOUDY    87  71  58 SW14G21   29.84R
ORANGEBURG     CLOUDY    86  71  60 SW14      29.86R
SUMTER SHAW    MOSUNNY   87  71  58 SW13      29.81S
NEWBERRY       PTCLDY    86  72  62 W13       29.89R
AIKEN          MOCLDY    84  70  61 SW12G20   29.89R
BARNWELL       FAIR      91  73  55 SW16      29.85F HX 100
MANNING        FAIR      86  73  66 SW23G32   29.85R
CAMDEN         FAIR      90  70  51 SW15      29.83S HX  95
LANCASTER      PTCLDY    84  68  58 SW10G17   29.85S
WINNSBORO      PTCLDY    82  70  65 NW5       29.85S


...EASTERN AND COASTAL SOUTH CAROLINA...

CITY           SKY/WX    TMP DP  RH WIND       PRES   REMARKS
MYRTLE BEACH   MOSUNNY   90  70  51 W18       29.84S HX  95
N MYRTLE BCH   MOSUNNY   81  74  79 SW17      29.83S
CONWAY         FAIR      86  70  58 SW7       29.83F HAZE
MARION         FAIR      88  70  55 SW9G16    29.82S
HARTSVILLE     FAIR      88  68  51 W8G17     29.82S
FLORENCE       MOSUNNY   89  69  51 SW18      29.82S
DARLINGTON     PTSUNNY   91  69  48 W10       29.82S HX  96
CHARLESTON APT PTSUNNY   86  72  62 SW9       29.86F
MOUNT PLEASANT FAIR      84  75  74 S10       29.87S
WALTERBORO     CLOUDY    86  72  62 SW9       29.87S
BEAUFORT       MOSUNNY   91  72  53 SW18G24   29.86F HX  98


...EASTERN GEORGIA...

CITY           SKY/WX    TMP DP  RH WIND       PRES   REMARKS
AUGUSTA BUSH F MOSUNNY   90  70  51 W10       29.84S HX  95
AUGUSTA DANIEL PTSUNNY   89  67  47 VRB6G20   29.86S
THOMSON        MOSUNNY   88  70  55 NW9       29.91R
WASHINGTON     FAIR      88  70  55 W9        29.87R
CLAXTON        FAIR      91  72  53 SW12G17   29.88F HX  97
SYLVANIA       CLEAR     91  71  52 W9G16     29.87F HX  96
STATESBORO     SUNNY     92  69  47 W12G17    29.87F HX  96
SAVANNAH       MOSUNNY   94  65  38 W10       29.88F HX  96


...SOUTHERN NORTH CAROLINA...

CITY           SKY/WX    TMP DP  RH WIND       PRES   REMARKS
CHARLOTTE      PTSUNNY   85  65  51 SW9       29.84F
MONROE         MOSUNNY   85  65  51 W14       29.84S
WADESBORO      CLOUDY    85  66  51 SW3       29.83R
ROCKINGHAM     PTCLDY    86  68  55 W7        29.83S
ASHEVILLE      CLOUDY    72  60  66 N15G23    29.94R

$$



USA.gov is the U.S. government's official web portal to all federal, state and local government web resources and services.